Weather History for K3I2 - February, 2013

Change the Weather History Date:

Wednesday, February 27, 2013

  Actual Average (KHTS) Record (KHTS)
Temperature  
Mean Temperature 40 °F 40 °F  
Max Temperature 44 °F 50 °F 77 °F (1977)
Min Temperature 35 °F 31 °F 2 °F (1963)
Degree Days  
Heating Degree Days 26 25  
Month to date heating degree days 753  
Since 1 July heating degree days 3477  
Cooling Degree Days 0 0  
Month to date cooling degree days 0  
Year to date cooling degree days 0  
Moisture  
Dew Point 36 °F    
Average Humidity 84    
Maximum Humidity 93    
Minimum Humidity 71    
Precipitation  
Precipitation 0.00 in 0.12 in 2.09 in (1962)
Month to date precipitation 2.96  
Year to date precipitation 5.93  
Snow  
Snow 0.00 in - - ()
Month to date snowfall  
Since 1 September snowfall  
Snow Depth -    
Sea Level Pressure  
Sea Level Pressure 29.69 in    
Wind  
Wind Speed 8 mph (SW)    
Max Wind Speed 18 mph    
Max Gust Speed 25 mph    
Visibility 10 miles    
Events Rain    
T = Trace of Precipitation, MM = Missing Value Source: NWS Daily Summary

Daily Weather History Graph

Daily Weather History Graph

Search for Another Location

Airport or City:

Trip Planner

Search our weather history database for the weather conditions in past years. The results will help you decide how hot, cold, wet, or windy it might be!

Date:

Astronomy

Feb. 27, 2013 Rise Set
Actual Time 7:03 AM EST 6:19 PM EST
Civil Twilight 6:36 AM EST 6:46 PM EST
Nautical Twilight 6:05 AM EST 7:17 PM EST
Astronomical Twilight 5:34 AM EST 7:47 PM EST
Moon 8:37 PM EST (2/27) 7:39 AM EST (2/27)
Length of Visible Light 12h 09m
Length of Day
11h 15m
Waning Gibbous, 96% of the Moon is Illuminated
Feb 27
Waning Gibbous
Mar 4
Last Quarter
Mar 11
New
Mar 19
First Quarter
Mar 27
Full

Hourly Weather History & Observations

Time (EST) Temp. Windchill Dew Point Humidity Pressure Visibility Wind Dir Wind Speed Gust Speed Precip Events Conditions
12:15 AM 44.6 °F 42.2 °F 41.0 °F 87% 29.58 in 10.0 mi SW 4.6 mph - N/A   Mostly Cloudy
12:35 AM 44.6 °F 41.4 °F 41.0 °F 87% 29.58 in 10.0 mi SSW 5.8 mph - N/A   Mostly Cloudy
12:55 AM 44.6 °F - 41.0 °F 87% 29.58 in 10.0 mi Calm Calm - N/A   Overcast
1:15 AM 44.6 °F 40.7 °F 41.0 °F 87% 29.58 in 10.0 mi SW 6.9 mph - N/A   Light Drizzle
1:35 AM 44.6 °F 40.7 °F 41.0 °F 87% 29.59 in 10.0 mi SW 6.9 mph - N/A   Scattered Clouds
1:55 AM 44.6 °F 42.2 °F 41.0 °F 87% 29.59 in 10.0 mi SW 4.6 mph - N/A   Clear
2:15 AM 44.6 °F 42.2 °F 41.0 °F 87% 29.59 in 10.0 mi SW 4.6 mph - N/A   Scattered Clouds
2:35 AM 44.6 °F 43.1 °F 41.0 °F 87% 29.59 in 10.0 mi SW 3.5 mph - N/A   Mostly Cloudy
2:55 AM 44.6 °F 38.8 °F 41.0 °F 87% 29.59 in 10.0 mi SW 11.5 mph 16.1 mph N/A Rain Light Rain
3:15 AM 44.6 °F 38.8 °F 37.4 °F 76% 29.59 in 10.0 mi WSW 11.5 mph 24.2 mph N/A Rain Light Rain
3:55 AM 42.8 °F 35.1 °F 37.4 °F 81% 29.61 in 10.0 mi WSW 16.1 mph 21.9 mph N/A   Scattered Clouds
4:15 AM 42.8 °F 37.5 °F 37.4 °F 81% 29.62 in 10.0 mi WSW 9.2 mph 17.3 mph N/A   Mostly Cloudy
4:35 AM 41.0 °F 34.3 °F 37.4 °F 87% 29.63 in 10.0 mi SW 11.5 mph 18.4 mph N/A Rain Light Rain
4:55 AM 41.0 °F 34.7 °F 37.4 °F 87% 29.64 in 10.0 mi SW 10.4 mph - N/A   Overcast
5:15 AM 41.0 °F 35.8 °F 37.4 °F 87% 29.65 in 10.0 mi SW 8.1 mph - N/A   Overcast
5:35 AM 41.0 °F 34.3 °F 35.6 °F 81% 29.65 in 10.0 mi WSW 11.5 mph - N/A   Mostly Cloudy
5:55 AM 41.0 °F 35.2 °F 35.6 °F 81% 29.66 in 10.0 mi SW 9.2 mph - N/A   Overcast
6:15 AM 41.0 °F 36.4 °F 35.6 °F 81% 29.66 in 10.0 mi SW 6.9 mph - N/A   Mostly Cloudy
6:35 AM 41.0 °F 37.1 °F 35.6 °F 81% 29.66 in 10.0 mi SW 5.8 mph - N/A   Mostly Cloudy
6:55 AM 41.0 °F 38.0 °F 35.6 °F 81% 29.67 in 10.0 mi SSW 4.6 mph - N/A   Mostly Cloudy
7:15 AM 41.0 °F 37.1 °F 35.6 °F 81% 29.68 in 10.0 mi SW 5.8 mph - N/A   Overcast
7:35 AM 41.0 °F 35.8 °F 37.4 °F 87% 29.68 in 10.0 mi SSW 8.1 mph - N/A   Mostly Cloudy
7:55 AM 41.0 °F 36.4 °F 37.4 °F 87% 29.69 in 10.0 mi SW 6.9 mph - N/A   Overcast
8:15 AM 41.0 °F 35.2 °F 37.4 °F 87% 29.70 in 10.0 mi SW 9.2 mph - N/A   Overcast
8:35 AM 41.0 °F 34.7 °F 37.4 °F 87% 29.71 in 10.0 mi SW 10.4 mph - N/A   Mostly Cloudy
8:55 AM 41.0 °F 35.8 °F 37.4 °F 87% 29.72 in 10.0 mi SW 8.1 mph - N/A   Mostly Cloudy
9:15 AM 41.0 °F 34.7 °F 37.4 °F 87% 29.72 in 10.0 mi SW 10.4 mph - N/A   Overcast
9:35 AM 42.8 °F 37.5 °F 37.4 °F 81% 29.72 in 10.0 mi SW 9.2 mph - N/A   Overcast
10:15 AM 42.8 °F 37.0 °F 37.4 °F 81% 29.73 in 10.0 mi SW 10.4 mph - N/A   Mostly Cloudy
10:35 AM 41.0 °F 34.7 °F 37.4 °F 87% 29.74 in 7.0 mi SW 10.4 mph 19.6 mph N/A   Mostly Cloudy
10:55 AM 41.0 °F 34.3 °F 37.4 °F 87% 29.73 in 7.0 mi WSW 11.5 mph - N/A   Mostly Cloudy
11:15 AM 42.8 °F 37.0 °F 37.4 °F 81% 29.74 in 10.0 mi WSW 10.4 mph - N/A   Mostly Cloudy
11:35 AM 42.8 °F 37.5 °F 37.4 °F 81% 29.73 in 10.0 mi SW 9.2 mph - N/A   Mostly Cloudy
11:55 AM 44.6 °F 37.8 °F 37.4 °F 76% 29.73 in 10.0 mi SW 15.0 mph 18.4 mph N/A   Mostly Cloudy
12:15 PM 44.6 °F 38.8 °F 37.4 °F 76% 29.72 in 10.0 mi WSW 11.5 mph 19.6 mph N/A   Mostly Cloudy
12:35 PM 44.6 °F 38.1 °F 35.6 °F 71% 29.71 in 10.0 mi WSW 13.8 mph 18.4 mph N/A   Mostly Cloudy
1:15 PM 42.8 °F 37.5 °F 35.6 °F 76% 29.71 in 10.0 mi SW 9.2 mph 17.3 mph N/A   Overcast
1:55 PM 44.6 °F 36.9 °F 35.6 °F 71% 29.70 in 10.0 mi SW 18.4 mph 25.3 mph N/A   Mostly Cloudy
2:15 PM 42.8 °F 35.4 °F 35.6 °F 76% 29.70 in 7.0 mi WSW 15.0 mph 23.0 mph N/A Rain Light Rain
2:35 PM 41.0 °F 34.7 °F 37.4 °F 87% 29.70 in 10.0 mi WSW 10.4 mph 16.1 mph N/A   Mostly Cloudy
2:55 PM 42.8 °F 37.0 °F 37.4 °F 81% 29.70 in 10.0 mi WSW 10.4 mph - N/A   Scattered Clouds
3:15 PM 42.8 °F 38.0 °F 35.6 °F 76% 29.70 in 10.0 mi SSW 8.1 mph 17.3 mph N/A   Scattered Clouds
3:35 PM 42.8 °F 37.0 °F 35.6 °F 76% 29.70 in 10.0 mi SW 10.4 mph - N/A   Mostly Cloudy
3:55 PM 42.8 °F 36.6 °F 35.6 °F 76% 29.70 in 10.0 mi SW 11.5 mph 18.4 mph N/A   Mostly Cloudy
4:15 PM 41.0 °F 34.3 °F 35.6 °F 81% 29.71 in 5.0 mi SW 11.5 mph 18.4 mph N/A Rain Rain
4:35 PM 41.0 °F 37.1 °F 37.4 °F 87% 29.70 in 10.0 mi WSW 5.8 mph - N/A   Mostly Cloudy
4:55 PM 41.0 °F 37.1 °F 37.4 °F 87% 29.71 in 10.0 mi SSW 5.8 mph - N/A   Mostly Cloudy
5:15 PM 41.0 °F 36.4 °F 35.6 °F 81% 29.72 in 10.0 mi SSW 6.9 mph - N/A   Overcast
5:35 PM 41.0 °F 36.4 °F 37.4 °F 87% 29.73 in 10.0 mi SW 6.9 mph - N/A   Overcast
5:55 PM 41.0 °F 34.7 °F 35.6 °F 81% 29.74 in 2.5 mi WSW 10.4 mph 19.6 mph N/A Rain Rain
6:15 PM 39.2 °F 32.0 °F 35.6 °F 87% 29.74 in 4.0 mi WSW 11.5 mph 20.7 mph N/A Rain Light Rain
6:35 PM 37.4 °F 31.4 °F 35.6 °F 93% 29.74 in 10.0 mi WSW 8.1 mph - N/A   Mostly Cloudy
6:55 PM 39.2 °F 33.0 °F 35.6 °F 87% 29.75 in 10.0 mi WSW 9.2 mph 16.1 mph N/A Rain Light Rain
7:15 PM 37.4 °F 28.5 °F 35.6 °F 93% 29.75 in 10.0 mi WSW 15.0 mph - N/A Rain Light Rain
7:35 PM 37.4 °F 28.9 °F 33.8 °F 87% 29.76 in 10.0 mi WSW 13.8 mph 19.6 mph N/A Rain Light Rain
7:55 PM 37.4 °F 29.3 °F 33.8 °F 87% 29.76 in 10.0 mi WSW 12.7 mph 18.4 mph N/A   Mostly Cloudy
8:15 PM 37.4 °F 29.3 °F 32.0 °F 81% 29.77 in 10.0 mi WSW 12.7 mph 19.6 mph N/A   Scattered Clouds
8:35 PM 37.4 °F 29.3 °F 33.8 °F 87% 29.77 in 10.0 mi SW 12.7 mph 16.1 mph N/A   Clear
9:15 PM 37.4 °F 30.3 °F 32.0 °F 81% 29.77 in 10.0 mi WSW 10.4 mph - N/A   Clear
9:35 PM 37.4 °F 30.8 °F 32.0 °F 81% 29.77 in 10.0 mi WSW 9.2 mph - N/A   Clear
9:55 PM 35.6 °F 28.6 °F 32.0 °F 87% 29.77 in 10.0 mi WSW 9.2 mph - N/A   Scattered Clouds
10:15 PM 35.6 °F 28.0 °F 32.0 °F 87% 29.76 in 10.0 mi SW 10.4 mph - N/A   Mostly Cloudy
10:35 PM 35.6 °F 28.0 °F 32.0 °F 87% 29.76 in 10.0 mi WSW 10.4 mph - N/A   Mostly Cloudy
10:55 PM 35.6 °F 28.0 °F 32.0 °F 87% 29.76 in 10.0 mi WSW 10.4 mph - N/A   Scattered Clouds
11:35 PM 35.6 °F 29.2 °F 32.0 °F 87% 29.75 in 10.0 mi SW 8.1 mph - N/A   Clear
11:55 PM 35.6 °F 29.9 °F 32.0 °F 87% 29.75 in 10.0 mi SW 6.9 mph - N/A   Scattered Clouds